This is the latest recevied weather packets stored in our database for station/object K1NOT-WX. If no packets are shown the sender has not sent any weather packets the latest 10 day(s).
| Time | Temp. | Humidity | Pressure | Rain* | Wind** | Luminosity | Snow |
|---|---|---|---|---|---|---|---|
| 1777724833 | 10° C | 93% | 1008.1 hPa | 0 mm | - | - | - |
| 1777723933 | 10° C | 93% | 1007.8 hPa | 0 mm | - | - | - |
| 1777723033 | 10° C | 93% | 1008.5 hPa | 0 mm | - | - | - |
| 1777722141 | 10° C | 92% | 1008.5 hPa | 0 mm | - | - | - |
| 1777721232 | 10.56° C | 91% | 1008.5 hPa | 0 mm | - | - | - |
| 1777720332 | 10.56° C | 89% | 1008.5 hPa | 0 mm | - | - | - |
| 1777719432 | 10.56° C | 88% | 1008.1 hPa | 0 mm | - | - | - |
| 1777718533 | 10.56° C | 86% | 1007.8 hPa | 0 mm | - | - | - |
| 1777717632 | 10.56° C | 86% | 1008.1 hPa | 0 mm | - | - | - |
| 1777716732 | 11.11° C | 85% | 1007.4 hPa | 0 mm | - | - | - |
| 1777715832 | 10.56° C | 85% | 1007.8 hPa | 0 mm | - | - | - |
| 1777714932 | 11.11° C | 84% | 1007.8 hPa | 0 mm | - | - | - |
| 1777714032 | 11.11° C | 83% | 1008.5 hPa | 0 mm | - | - | - |
| 1777713132 | 11.67° C | 81% | 1008.1 hPa | 0 mm | - | - | - |
| 1777712232 | 12.22° C | 79% | 1008.5 hPa | 0 mm | - | - | - |
| 1777711332 | 12.22° C | 77% | 1007.8 hPa | 0 mm | - | - | - |
| 1777710432 | 12.78° C | 77% | 1008.1 hPa | 0 mm | - | - | - |
| 1777709532 | 12.78° C | 75% | 1008.1 hPa | 0 mm | - | - | - |
| 1777708632 | 13.33° C | 74% | 1008.1 hPa | 0 mm | - | - | - |
| 1777707732 | 13.33° C | 72% | 1007.8 hPa | 0 mm | - | - | - |
| 1777706832 | 13.89° C | 70% | 1007.4 hPa | 0 mm | - | - | - |
| 1777705932 | 13.33° C | 71% | 1007.8 hPa | 0 mm | - | - | - |
| 1777705032 | 13.33° C | 70% | 1007.8 hPa | 0 mm | - | - | - |
| 1777704132 | 13.89° C | 68% | 1007.4 hPa | 0 mm | - | - | - |
| 1777703232 | 14.44° C | 65% | 1007.4 hPa | 0 mm | - | - | - |
* Rain latest hour (hover to see other rain measurements)
** Current wind speed in m/s (hover to see current wind gust speed)